Tiree, United Kingdom

10:10 AM BST on May 27, 2017 (GMT +0100)
Tiree

Weather History for EGPU - January, 2013

Change the Weather History Date:

Monday, January 28, 2013

  Actual Average Record
Temperature  
Mean Temperature 44 °F -  
Max Temperature 48 °F 45 °F 50 °F (2008)
Min Temperature 39 °F 37 °F 33 °F (2004)
Degree Days  
Heating Degree Days 22    
Moisture  
Dew Point 39 °F    
Average Humidity 82    
Maximum Humidity 93    
Minimum Humidity 57    
Precipitation  
Precipitation 0.35 in 0.11 in - ()
Sea Level Pressure  
Sea Level Pressure 28.94 in    
Wind  
Wind Speed 27 mph ()    
Max Wind Speed 45 mph    
Max Gust Speed 59 mph    
Visibility 4.7 miles    
Events Rain    
Averages and records for this station are not official NWS values.
T = Trace of Precipitation, MM = Missing Value Source: Averaged Metar Reports

Daily Weather History Graph

Daily Weather History Graph

Search for Another Location

Airport or City:

Trip Planner

Search our weather history database for the weather conditions in past years. The results will help you decide how hot, cold, wet, or windy it might be!

Date:

Astronomy

Jan. 28, 2013 Rise Set
Actual Time 8:31 AM GMT 4:50 PM GMT
Civil Twilight 7:49 AM GMT 5:32 PM GMT
Nautical Twilight 7:03 AM GMT 6:18 PM GMT
Astronomical Twilight 6:18 AM GMT 7:03 PM GMT
Moon 7:01 PM GMT (1/28) 8:24 AM GMT (1/28)
Length of Visible Light 9h 43m
Length of Day
8h 18m
Full, 98% of the Moon is Illuminated
Jan 28
Full
Feb 3
Last Quarter
Feb 10
New
Feb 17
First Quarter
Feb 25
Full

Hourly Weather History & Observations

Time (GMT) Temp. Windchill Dew Point Humidity Pressure Visibility Wind Dir Wind Speed Gust Speed Precip Events Conditions
12:20 AM 44.6 °F 34.7 °F 35.6 °F 71% 29.06 in 6.2 mi WSW 29.9 mph - N/A   Unknown
12:50 AM 41.0 °F 29.5 °F 37.4 °F 87% 29.09 in 2.2 mi West 32.2 mph 43.7 mph N/A Rain Rain Showers
1:20 AM 41.0 °F 28.6 °F 37.4 °F 87% 29.09 in - West 38.0 mph - N/A Rain Rain Showers
1:50 AM 42.8 °F 32.1 °F 39.2 °F 87% 29.12 in - West 31.1 mph 46.0 mph N/A Rain Light Rain Showers
2:20 AM 42.8 °F 34.3 °F 39.2 °F 87% 29.12 in 4.3 mi West 19.6 mph - N/A   Unknown
2:50 AM 45 °F - 36 °F 62% 29.14 in 5 mi West 24.2 mph - - Rain Rain
2:50 AM 44.6 °F 35.7 °F 35.6 °F 71% 29.12 in 3.7 mi West 24.2 mph 41.4 mph N/A   Scattered Clouds
3:20 AM 44.6 °F 35.5 °F 37.4 °F 76% 29.12 in 4.3 mi West 25.3 mph 38.0 mph N/A   Mostly Cloudy
3:50 AM 44.6 °F 35.9 °F 35.6 °F 71% 29.15 in 4.3 mi West 23.0 mph - N/A   Scattered Clouds
4:20 AM 44.6 °F 36.4 °F 35.6 °F 71% 29.15 in 5.0 mi West 20.7 mph - N/A   Partly Cloudy
4:50 AM 42.8 °F 32.3 °F 35.6 °F 76% 29.18 in 6.2 mi West 29.9 mph 48.3 mph N/A   Partly Cloudy
5:20 AM 42.8 °F 32.3 °F 33.8 °F 70% 29.18 in 6.2 mi West 29.9 mph 42.6 mph N/A   Mostly Cloudy
5:50 AM 44 °F - 34 °F 57% 29.18 in 6 mi WSW 24.2 mph - -   Light Haze
5:50 AM 44.6 °F 35.7 °F 33.8 °F 66% 29.18 in 5.0 mi WSW 24.2 mph 35.7 mph N/A   Unknown
6:20 AM 42.8 °F 33.1 °F 35.6 °F 76% 29.18 in 5.0 mi WSW 25.3 mph - N/A   Partly Cloudy
6:50 AM 44.6 °F 35.9 °F 35.6 °F 71% 29.15 in 5.0 mi SW 23.0 mph 34.5 mph N/A   Unknown
7:20 AM 41.0 °F 31.4 °F 33.8 °F 76% 29.15 in 6.2 mi WSW 21.9 mph - N/A Rain Light Rain Showers
7:50 AM 42.8 °F 33.3 °F 37.4 °F 81% 29.15 in 5.0 mi SW 24.2 mph - N/A   Unknown
8:20 AM 44.6 °F 35.3 °F 39.2 °F 81% 29.12 in 4.3 mi SSW 26.5 mph - N/A   Scattered Clouds
8:50 AM 44 °F - 37 °F 68% 29.13 in 4 mi SSW 32.2 mph - - Rain Rain
8:50 AM 44.6 °F 34.4 °F 37.4 °F 76% 29.12 in 4.3 mi SSW 32.2 mph - N/A   Scattered Clouds
9:20 AM 42.8 °F 31.8 °F 37.4 °F 81% 29.09 in 5.6 mi South 33.4 mph - N/A Rain Light Rain
9:50 AM 41.0 °F 28.6 °F 37.4 °F 87% 29.09 in 5.6 mi South 38.0 mph - N/A Rain Light Rain
10:20 AM 41.0 °F 29.1 °F 37.4 °F 87% 29.03 in 3.7 mi South 34.5 mph - N/A Rain Light Rain
10:50 AM 41.0 °F 28.6 °F 37.4 °F 87% 29.00 in 2.2 mi South 38.0 mph - N/A Rain Rain
11:20 AM 39.2 °F 25.8 °F 37.4 °F 93% 28.94 in 4.3 mi South 40.3 mph 55.2 mph N/A Rain Rain
11:50 AM 41 °F - 38 °F 84% 28.92 in 3 mi South 41.4 mph - - Rain Light Rain
11:50 AM 41.0 °F 28.2 °F 37.4 °F 87% 28.91 in 4.3 mi South 41.4 mph 56.4 mph N/A Rain Rain
12:20 PM 41.0 °F 28.2 °F 39.2 °F 93% 28.85 in 4.3 mi South 41.4 mph 56.4 mph N/A Rain Rain
12:50 PM 41.0 °F 27.7 °F 39.2 °F 93% 28.82 in 4.3 mi South 44.9 mph 58.7 mph N/A Rain Rain
1:20 PM 42.8 °F 30.3 °F 39.2 °F 87% 28.80 in 5.0 mi South 44.9 mph 58.7 mph N/A Rain Light Rain
1:50 PM 44.6 °F 33.8 °F 41.0 °F 87% 28.80 in 5.6 mi South 36.8 mph 49.5 mph N/A Rain Light Rain
2:20 PM 44.6 °F 34.2 °F 41.0 °F 87% 28.77 in 5.6 mi SSW 33.4 mph 44.9 mph N/A Rain Light Rain
2:50 PM 47 °F - 42 °F 77% 28.75 in 6 mi SSW 29.9 mph - - Rain Rain
2:50 PM 46.4 °F 37.2 °F 42.8 °F 87% 28.74 in 5.6 mi SSW 29.9 mph 42.6 mph N/A Rain Light Rain
3:20 PM 46.4 °F 37.4 °F 42.8 °F 87% 28.74 in 1.0 mi SSW 28.8 mph - N/A Rain Rain Showers
3:50 PM 46.4 °F 37.9 °F 39.2 °F 76% 28.71 in 6.2 mi SSW 25.3 mph - N/A   Mostly Cloudy
4:20 PM 46.4 °F 39.2 °F 42.8 °F 87% 28.71 in 3.7 mi SW 18.4 mph 32.2 mph N/A   Mostly Cloudy
4:50 PM 46.4 °F 37.5 °F 42.8 °F 87% 28.71 in 3.1 mi SW 27.6 mph 39.1 mph N/A   Haze
5:20 PM 46.4 °F 37.0 °F 42.8 °F 87% 28.68 in 3.1 mi SW 31.1 mph - N/A Rain Light Rain Showers
5:50 PM 47 °F - 44 °F 84% 28.70 in 3 mi SW 23.0 mph - - Rain Rain
5:50 PM 46.4 °F 38.3 °F 44.6 °F 93% 28.68 in 3.1 mi SW 23.0 mph - N/A   Haze
6:20 PM 46.4 °F 38.1 °F 44.6 °F 93% 28.68 in - SW 24.2 mph - N/A Rain Light Rain Showers
6:50 PM 46.4 °F 37.5 °F 44.6 °F 93% 28.68 in 3.1 mi SW 27.6 mph - N/A   Haze
7:20 PM 48.2 °F - 42.8 °F 82% 28.71 in 5.0 mi WSW 28.8 mph - N/A   Unknown
7:50 PM 46.4 °F 37.5 °F 42.8 °F 87% 28.74 in 3.7 mi WSW 27.6 mph - N/A Rain Rain Showers
8:20 PM 46.4 °F 38.1 °F 42.8 °F 87% 28.77 in 4.3 mi WSW 24.2 mph - N/A   Partly Cloudy
8:50 PM 47 °F - 42 °F 79% 28.80 in 5 mi WSW 25.3 mph - - Rain Rain
8:50 PM 46.4 °F 37.9 °F 42.8 °F 87% 28.80 in 5.0 mi WSW 25.3 mph - N/A   Scattered Clouds
9:20 PM 46.4 °F 38.1 °F 42.8 °F 87% 28.82 in 5.0 mi WSW 24.2 mph - N/A   Scattered Clouds
9:50 PM 48.2 °F - 42.8 °F 82% 28.82 in 5.0 mi WSW 24.2 mph - N/A   Scattered Clouds
10:20 PM 48.2 °F - 42.8 °F 82% 28.88 in 5.0 mi West 25.3 mph - N/A   Partly Cloudy
10:50 PM 46.4 °F 38.1 °F 42.8 °F 87% 28.91 in 6.2 mi West 24.2 mph 35.7 mph N/A   Unknown
11:20 PM 46.4 °F 38.1 °F 42.8 °F 87% 28.97 in 6.2 mi WNW 24.2 mph - N/A   Scattered Clouds
11:50 PM 46 °F - 41 °F 77% 29.01 in 8 mi WNW 28.8 mph - - Rain Rain
11:50 PM 46.4 °F 37.4 °F 41.0 °F 81% 29.00 in 6.2 mi WNW 28.8 mph 41.4 mph N/A   Unknown